| time (UTC) | temp F | wind direction | speed MPH | gust MPH | rain 1hr in | rain 24hr in | rain mn in | humidity % | barometer mb |
| 20260503210056 | 63 | 40 | 6.0 | 10.0 | 0.00 | 0.00 | 0.00 | 34 | 1014.9 |
| 20260503204550 | 63 | 80 | 7.0 | 12.0 | 0.00 | 0.00 | 0.00 | 34 | 1014.9 |
| 20260503203043 | 62 | 74 | 7.0 | 15.0 | 0.00 | 0.00 | 0.00 | 36 | 1015.2 |
| 20260503203040 | 62 | 71 | 7.0 | 15.0 | 0.00 | 0.00 | 0.00 | 36 | 1015.2 |
| 20260503201539 | 63 | 90 | 6.0 | 13.0 | 0.00 | 0.00 | 0.00 | 34 | 1015.5 |
| 20260503200037 | 63 | 360 | 8.0 | 13.0 | 0.00 | 0.00 | 0.00 | 33 | 1015.7 |
| 20260503194535 | 62 | 114 | 6.0 | 14.0 | 0.00 | 0.00 | 0.00 | 33 | 1016.3 |
| 20260503193035 | 63 | 135 | 4.0 | 9.0 | 0.00 | 0.00 | 0.00 | 33 | 1016.5 |
| 20260503191526 | 62 | 94 | 3.0 | 9.0 | 0.00 | 0.00 | 0.00 | 35 | 1016.7 |
| 20260503190027 | 62 | 62 | 7.0 | 13.0 | 0.00 | 0.00 | 0.00 | 37 | 1017.1 |
| 20260503184533 | 61 | 200 | 8.0 | 13.0 | 0.00 | 0.00 | 0.00 | 36 | 1017.1 |
| 20260503183019 | 61 | 65 | 6.0 | 14.0 | 0.00 | 0.00 | 0.00 | 38 | 1017.6 |
| 20260503181518 | 62 | 111 | 3.0 | 7.0 | 0.00 | 0.00 | 0.00 | 37 | 1017.8 |
| 20260503180022 | 60 | 182 | 4.0 | 9.0 | 0.00 | 0.00 | 0.00 | 38 | 1018.0 |
| 20260503174511 | 60 | 355 | 6.0 | 10.0 | 0.00 | 0.00 | 0.00 | 40 | 1018.3 |
| 20260503173014 | 60 | 65 | 2.0 | 9.0 | 0.00 | 0.00 | 0.00 | 39 | 1018.3 |
| 20260503171509 | 59 | 146 | 1.0 | 11.0 | 0.00 | 0.00 | 0.00 | 39 | 1018.6 |
| 20260503081501 | 32 | 145 | 0.0 | 0.0 | 0.00 | 0.00 | 0.00 | 91 | 1018.2 |
| 20260503071557 | 33 | 151 | 0.0 | 0.0 | 0.00 | 0.00 | 0.00 | 89 | 1017.7 |
| 20260503070104 | 34 | 151 | 0.0 | 0.0 | 0.00 | 0.00 | 0.00 | 89 | 1017.7 |
| 20260503054540 | 37 | 153 | 0.0 | 1.0 | 0.00 | 0.00 | 0.00 | 86 | 1017.7 |
| 20260503053038 | 37 | 153 | 0.0 | 0.0 | 0.00 | 0.00 | 0.00 | 85 | 1017.7 |
| 20260503051533 | 38 | 153 | 0.0 | 0.0 | 0.00 | 0.00 | 0.00 | 84 | 1017.7 |
| 20260503050031 | 39 | 153 | 0.0 | 2.0 | 0.00 | 0.00 | 0.00 | 83 | 1017.7 |
| 20260503044527 | 40 | 153 | 0.0 | 0.0 | 0.00 | 0.00 | 0.00 | 83 | 1017.6 |
| 20260503043023 | 40 | 153 | 0.0 | 0.0 | 0.00 | 0.00 | 0.00 | 83 | 1017.5 |
| 20260503041522 | 40 | 153 | 0.0 | 1.0 | 0.00 | 0.00 | 0.00 | 83 | 1017.4 |
| 20260503040020 | 40 | 153 | 0.0 | 0.0 | 0.00 | 0.00 | 0.00 | 82 | 1017.4 |
| 20260503034534 | 40 | 153 | 0.0 | 0.0 | 0.00 | 0.00 | 0.00 | 81 | 1017.4 |
| 20260503033016 | 41 | 153 | 0.0 | 0.0 | 0.00 | 0.00 | 0.00 | 80 | 1017.2 |
| 20260503031518 | 41 | 153 | 0.0 | 0.0 | 0.00 | 0.00 | 0.00 | 80 | 1017.2 |
| 20260503030015 | 41 | 153 | 0.0 | 3.0 | 0.00 | 0.00 | 0.00 | 78 | 1017.2 |
| 20260503024514 | 42 | 153 | 0.0 | 3.0 | 0.00 | 0.00 | 0.00 | 75 | 1017.2 |
| 20260503023010 | 43 | 153 | 0.0 | 4.0 | 0.00 | 0.00 | 0.00 | 73 | 1017.1 |
| 20260503021509 | 45 | 152 | 0.0 | 0.0 | 0.00 | 0.00 | 0.00 | 68 | 1016.8 |
| 20260503020007 | 46 | 150 | 0.0 | 0.0 | 0.00 | 0.00 | 0.00 | 64 | 1016.6 |
| 20260503014512 | 47 | 150 | 2.0 | 5.0 | 0.00 | 0.00 | 0.00 | 57 | 1016.4 |
| 20260503013004 | 48 | 149 | 0.0 | 2.0 | 0.00 | 0.00 | 0.00 | 56 | 1016.1 |
| 20260503011504 | 49 | 149 | 2.0 | 6.0 | 0.00 | 0.00 | 0.00 | 53 | 1015.9 |
| 20260503010003 | 49 | 152 | 1.0 | 5.0 | 0.00 | 0.00 | 0.00 | 56 | 1015.8 |
| 20260503004503 | 50 | 155 | 2.0 | 6.0 | 0.00 | 0.00 | 0.00 | 54 | 1015.7 |
| 20260503003100 | 51 | 153 | 0.0 | 2.0 | 0.00 | 0.00 | 0.00 | 52 | 1015.3 |
| 20260503001601 | 51 | 153 | 1.0 | 6.0 | 0.00 | 0.00 | 0.00 | 51 | 1015.2 |
| 20260503000059 | 52 | 161 | 3.0 | 7.0 | 0.00 | 0.00 | 0.00 | 48 | 1015.0 |
| 20260502234559 | 52 | 153 | 4.0 | 9.0 | 0.00 | 0.00 | 0.00 | 48 | 1014.9 |
| 20260502233102 | 53 | 168 | 2.0 | 8.0 | 0.00 | 0.00 | 0.00 | 47 | 1014.7 |
| 20260502231605 | 54 | 156 | 5.0 | 9.0 | 0.00 | 0.00 | 0.00 | 46 | 1014.6 |
| 20260502230055 | 54 | 171 | 5.0 | 9.0 | 0.00 | 0.00 | 0.00 | 45 | 1014.4 |
| 20260502224555 | 54 | 136 | 3.0 | 8.0 | 0.00 | 0.00 | 0.00 | 45 | 1014.3 |
| 20260502223053 | 55 | 100 | 4.0 | 8.0 | 0.00 | 0.00 | 0.00 | 46 | 1014.3 |
| 20260502221552 | 55 | 83 | 3.0 | 12.0 | 0.00 | 0.00 | 0.00 | 44 | 1014.3 |
| 20260502220100 | 56 | 53 | 7.0 | 13.0 | 0.00 | 0.00 | 0.00 | 42 | 1014.1 |
| 20260502214550 | 55 | 163 | 5.0 | 11.0 | 0.00 | 0.00 | 0.00 | 43 | 1014.1 |
| 20260502213048 | 55 | 132 | 4.0 | 13.0 | 0.00 | 0.00 | 0.00 | 44 | 1014.1 |
| 20260502211549 | 55 | 175 | 5.0 | 13.0 | 0.00 | 0.00 | 0.00 | 44 | 1014.0 |